COSMOS 2251 DEB, 37959

Orbit data source: Space-Track

COSMOS 2251 DEB, 37959 is space debris in LEO originally from a launch on Wed, 16 Jun 1993 UTC launched from the Plesetsk Missile And Space Complex (PKMTR). The debris from Iridium 33, an American commercial communications satellite, has been tracked extensively since its accidental collision with the defunct Russian satellite Cosmos 2251 in 2009. This event, occurring at high speed in low Earth orbit (LEO), generated thousands of pieces of space debris, significantly increasing the risk of further collisions. The Iridium 33 debris cloud has impacted space traffic management and orbital debris mitigation strategies, making it a subject of ongoing study in space situational awareness.

Loading next visibility...
Identifier
37959, 1993-036BPJ
Orbit
LEO
Country
Flag of CISCIS
Related business
Manufacturer
Unknown
Mission
Spacecraft
Bus & Motor
Unknown
Mass
Unknown
Launch date (UTC)
1993-06-16 (33 years ago)
Launch vehicle
Unknown
Launch site
Plesetsk Missile And Space Complex (PKMTR)
Object type
Payload
Rocket body
Debris
Shape & HBR
Unknown shape, 0.1 m
Radar Cross Section
Small (<0.1 m²)

Expand to show TLE details & history
Last TLE update: 2 days ago

TLE from 2 days ago
0 COSMOS 2251 DEB
1 37959U 93036BPJ 26033.21723498  .00003066  00000-0  65181-3 0  9993
2 37959  74.0128 318.8167 0055942  87.5657  62.6630 14.58519292808773
Epoch: 2026-02-02T05:12Z
TLE epoch observation values (Epoch: 2026-02-02T05:12:49.102Z)
Latitude
28.01912°
Longitude
-80.52541°
Altitude
683.104 km
Speed
7.527 km/s
True Right ascension
08h 40m 22s
True Declination
27° 52' 31"
Sunlit
Object was in full shadow at epoch
Visualization orbit readout
Latitude
Unknown
Longitude
Unknown
Altitude
Unknown
Speed
Unknown
Apparent Right ascension
Unknown
Apparent Declination
Unknown
Sunlit
N/A
Visualization observer readout
Local Sidereal Time
06:18:04
Azimuth
Unknown
Elevation
Unknown
Doppler factor
Unknown
Orbital elements
Apogee altitude
735.132 km
Perigee altitude
655.988 km
Semi-major axis
7,073.697 km
Eccentricity
0.00559
Inclination
74.0128°
RAAN
318.8167°
Arg. of periapsis
87.5657°
True anomaly
63.23428°
Mean anomaly
62.663°
Eccentric anomaly
62.94846°
Mean motion
3.64816 °/min
Orbital period
98.68 mins
BSTAR
0.00065181
Loading maneuver chart data...
Computing Atmospheric mass density...
Loading historical data...
Loading historical data...
Loading historical data...
Loading historical data...
Loading historical data...
Loading historical data...
Loading historical data...

Documentation

Showing up to 5 results
|